Wind_Speed
49 48 49 50 51 50 47 45 45 45 44 48 50 51 54 54 54 55 55 58 59 57 53 43 49 46 45 46 41 35 37 43 42 41 38 44 49 53
52 51 51 50 50 49 48 47 46 46 46 47 47 51 54 56 57 57 57 58 57 56 51 54 47 48 47 46 41 34 37 46 45 40 48 51 52 55
50 50 50 49 49 49 48 47 47 46 46 47 47 49 50 54 59 59 60 59 59 58 60 49 44 46 48 49 48 41 44 43 44 45 49 54 53 53
51 51 51 50 50 49 48 46 45 43 40 40 42 49 51 52 55 60 62 62 59 60 54 58 44 46 48 44 46 40 46 46 43 44 49 56 56 54
51 53 53 52 51 50 48 46 45 45 43 42 41 47 52 53 54 57 59 61 61 59 59 44 50 42 47 43 40 41 42 44 49 49 51 51 51 52
56 52 51 52 51 51 49 47 45 45 45 43 42 48 51 53 54 54 52 52 54 53 56 59 61 61 60 59 45 44 49 55 52 49 50 50 51 53
44 48 50 51 50 50 49 48 47 47 48 48 46 48 48 49 48 49 48 46 48 48 49 51 50 50 51 53 52 53 50 50 50 52 52 52 53 54
47 48 49 49 49 50 50 49 48 49 51 49 48 47 47 49 50 51 51 49 44 44 44 44 44 45 47 48 47 47 47 48 50 51 51 51 50 49
49 49 50 51 51 51 51 50 49 50 52 50 51 50 49 48 49 50 53 48 40 41 43 42 41 41 43 45 45 43 45 47 48 48 47 47 48 50
52 53 53 53 52 51 51 50 48 49 49 47 48 49 48 48 42 49 48 41 41 41 41 41 41 41 41 41 42 43 45 45 45 45 46 47 46 45
51 52 52 52 52 53 52 49 48 44 44 44 42 39 37 37 39 41 42 41 39 38 36 36 37 38 38 39 40 42 41 41 42 43 42 40 40 41
41 45 49 49 51 51 50 51 45 42 40 36 32 33 36 32 35 31 30 30 32 35 35 35 36 37 37 38 38 37 36 37 36 34 36 36 36 34
32 36 38 41 43 44 44 45 39 37 37 33 33 38 33 36 32 30 30 35 33 33 33 35 34 33 32 31 30 29 29 29 33 34 33 31 31 34
28 27 27 30 34 38 39 36 33 30 26 34 35 34 36 33 31 28 30 32 32 34 35 33 29 27 26 25 26 29 29 31 30 29 28 29 33 37
23 22 22 25 29 30 32 32 33 33 26 25 24 28 37 30 32 36 31 29 26 27 25 25 25 25 25 27 29 28 29 28 26 25 28 32 35 38
24 24 19 23 26 28 32 30 29 27 27 24 24 27 29 23 24 23 25 27 25 21 21 23 25 27 28 28 28 26 24 22 23 27 32 34 34 39
31 24 22 20 22 26 30 24 32 33 31 23 20 24 28 27 30 31 26 22 20 19 21 21 21 22 21 21 21 21 20 22 26 29 30 33 36 40
27 21 23 21 20 22 26 28 30 31 28 23 21 20 21 24 30 26 22 21 22 20 20 18 19 19 19 18 17 18 21 24 26 27 30 34 38 42
25 23 21 22 22 24 28 28 28 25 25 24 22 22 22 24 25 23 21 21 21 20 18 18 18 17 16 16 17 19 23 24 25 27 31 34 39 42
26 26 24 26 24 25 28 25 24 23 22 19 16 19 19 20 22 22 22 22 20 18 17 16 15 15 15 16 19 21 21 23 24 28 32 36 39 44
26 22 19 28 26 25 23 25 24 24 23 20 18 18 21 21 20 20 19 17 17 16 15 15 15 15 16 18 19 19 20 21 25 29 33 36 40 46
26 23 24 26 24 28 27 24 23 22 21 20 20 21 21 19 17 17 16 16 15 15 15 15 15 16 16 16 17 17 19 22 25 29 32 35 38 44
26 27 27 25 27 29 26 24 22 21 20 20 21 21 18 17 16 15 16 17 16 15 15 15 15 16 16 15 15 17 19 23 26 29 32 35 37 43
Wind_Direction
235 239 241 244 246 248 245 243 241 240 238 240 241 239 240 243 244 243 245 250 256 255 259 254 257 250 250 253 248 254 262 262 272 282 282 289 287 287
235 236 238 240 241 241 241 241 241 240 240 238 240 243 243 243 245 245 248 249 251 256 257 257 245 256 252 250 257 270 274 266 273 277 285 288 288 288
234 234 235 236 238 239 238 239 241 241 241 239 240 243 245 247 248 249 250 249 250 253 253 256 253 243 241 256 255 260 261 265 267 272 281 284 285 287
232 233 235 236 236 236 238 239 240 242 244 248 246 241 244 246 248 250 252 252 251 252 256 253 250 254 252 254 257 259 273 273 279 284 283 281 282 285
234 233 233 234 234 236 237 240 241 241 244 250 250 245 242 243 245 248 251 253 254 253 250 246 251 255 248 256 271 268 263 268 273 288 281 280 280 283
234 233 233 233 235 238 239 239 242 244 245 248 247 244 242 244 246 250 253 255 254 256 255 253 254 262 266 272 272 262 264 284 283 282 281 281 283 285
240 238 238 238 237 239 239 240 241 245 244 246 246 245 243 247 249 252 256 257 258 256 255 256 257 256 254 260 265 270 273 276 279 278 278 279 281 283
241 239 238 238 238 238 239 241 242 244 246 246 247 246 247 248 249 252 256 258 255 255 252 251 252 255 257 262 265 269 273 274 273 275 279 283 284 286
243 242 240 239 239 240 241 242 243 246 246 247 246 246 245 246 249 254 255 256 250 249 248 247 250 252 256 261 267 270 271 272 275 281 284 285 285 288
243 242 241 240 239 239 240 241 243 244 247 248 249 250 252 249 241 245 250 249 248 246 246 247 250 254 259 260 261 265 269 276 281 282 284 285 286 287
244 243 241 240 239 239 238 239 242 244 247 252 251 245 237 232 228 238 240 239 240 243 244 248 252 256 259 264 267 271 274 277 280 282 283 284 287 289
240 238 239 239 238 236 234 235 239 241 239 241 236 224 211 226 223 232 227 233 240 241 242 247 250 254 258 264 268 274 277 278 280 282 284 285 286 287
237 233 231 230 227 227 224 224 229 233 229 227 219 208 216 228 235 235 236 235 241 240 239 249 254 258 261 265 268 270 273 277 283 283 282 283 286 290
231 220 213 210 209 206 204 207 207 208 214 212 211 217 215 225 233 227 236 241 239 243 246 253 253 256 258 258 264 272 272 281 279 279 280 285 291 295
180 178 186 195 198 196 197 193 203 210 211 222 223 216 207 217 237 231 239 238 236 247 246 248 251 254 255 257 271 271 274 275 275 279 287 292 296 301
175 178 177 183 185 197 201 196 189 196 207 224 222 214 220 231 225 227 231 236 239 239 243 249 254 257 260 264 268 268 271 271 280 287 291 297 302 304
167 170 167 180 192 195 198 200 193 197 206 207 202 208 212 217 221 229 235 222 227 238 255 257 257 256 256 257 261 262 267 279 286 292 298 303 308 309
173 167 167 168 167 173 176 186 190 192 192 199 201 209 217 222 225 227 215 224 232 249 254 253 256 259 258 255 257 268 280 288 294 298 305 309 310 313
173 170 160 164 162 168 174 176 179 185 197 207 209 215 226 228 217 216 223 234 239 255 251 254 257 254 251 257 270 281 289 293 299 306 309 312 317 318
181 180 176 175 173 176 180 189 193 198 198 205 220 223 228 217 220 225 233 244 247 243 249 251 246 246 256 267 276 284 290 297 305 309 313 316 318 322
182 189 196 186 183 184 186 191 194 200 208 218 228 230 217 225 228 237 238 229 237 244 242 238 241 251 263 274 282 289 295 303 308 314 316 319 322 328
191 194 190 185 189 187 192 199 205 212 223 232 227 223 226 237 228 223 228 233 234 230 229 236 250 261 267 275 283 290 300 307 312 315 319 320 324 331
189 189 186 184 182 186 193 201 212 221 220 217 219 227 230 219 223 224 223 223 221 226 237 248 254 261 271 280 287 296 304 309 314 317 318 322 326 335
Height
5577 5583 5590 5595 5600 5606 5611 5616 5622 5628 5633 5636 5639 5643 5648 5652 5656 5660 5665 5668 5670 5671 5674 5675 5673 5672 5674 5675 5675 5677 5678 5679 5679 5679 5679 5678 5677 5675
5564 5570 5576 5581 5587 5593 5598 5604 5610 5616 5621 5624 5628 5632 5635 5639 5643 5647 5651 5655 5659 5661 5664 5666 5663 5661 5664 5667 5666 5667 5667 5667 5668 5668 5668 5667 5666 5665
5550 5556 5562 5568 5575 5581 5586 5591 5597 5603 5609 5612 5618 5619 5624 5627 5631 5634 5639 5643 5646 5649 5653 5656 5654 5654 5654 5657 5657 5657 5657 5656 5658 5658 5657 5656 5655 5651
5537 5544 5550 5556 5562 5568 5573 5579 5585 5590 5595 5600 5605 5608 5612 5616 5619 5622 5625 5629 5633 5637 5639 5644 5645 5646 5645 5645 5645 5645 5646 5646 5647 5647 5646 5643 5643 5640
5523 5530 5536 5542 5549 5555 5561 5566 5571 5576 5581 5586 5593 5596 5599 5603 5607 5609 5612 5616 5620 5625 5629 5632 5634 5635 5635 5634 5633 5635 5635 5634 5635 5634 5634 5632 5631 5628
5509 5515 5522 5529 5535 5541 5547 5552 5557 5562 5567 5573 5580 5583 5587 5591 5594 5597 5599 5602 5607 5611 5615 5619 5620 5619 5621 5622 5625 5625 5624 5624 5622 5621 5621 5620 5617 5614
5495 5502 5508 5515 5520 5527 5533 5539 5543 5549 5556 5561 5568 5571 5575 5580 5583 5584 5587 5591 5594 5598 5602 5604 5608 5610 5611 5612 5613 5613 5612 5612 5611 5611 5610 5608 5605 5602
5482 5488 5494 5500 5506 5513 5520 5525 5530 5535 5543 5549 5554 5558 5562 5567 5571 5573 5576 5579 5584 5587 5589 5592 5594 5597 5599 5601 5600 5601 5601 5601 5601 5600 5597 5594 5593 5588
5468 5473 5479 5486 5492 5499 5506 5511 5517 5522 5529 5535 5540 5545 5549 5554 5557 5562 5564 5568 5572 5575 5578 5581 5584 5586 5589 5591 5591 5590 5591 5591 5589 5586 5584 5583 5580 5576
5452 5457 5464 5472 5479 5485 5491 5498 5504 5510 5517 5522 5527 5530 5534 5538 5545 5549 5553 5558 5561 5564 5568 5571 5573 5575 5578 5580 5580 5580 5580 5578 5576 5575 5574 5570 5568 5564
5434 5441 5448 5456 5464 5470 5478 5486 5492 5499 5505 5508 5512 5515 5520 5526 5533 5539 5543 5547 5551 5555 5558 5561 5563 5565 5567 5568 5568 5568 5568 5567 5566 5564 5561 5560 5557 5554
5419 5425 5433 5442 5447 5456 5465 5473 5482 5489 5493 5497 5502 5506 5511 5517 5524 5528 5534 5538 5542 5545 5549 5552 5554 5555 5557 5558 5558 5558 5558 5557 5555 5554 5552 5551 5549 5546
5408 5413 5420 5427 5434 5443 5453 5463 5472 5478 5483 5489 5494 5501 5507 5513 5519 5524 5528 5531 5534 5537 5540 5543 5545 5546 5547 5549 5549 5549 5549 5548 5547 5546 5545 5543 5541 5538
5398 5404 5410 5417 5426 5435 5445 5455 5463 5471 5477 5484 5489 5495 5502 5508 5513 5517 5520 5524 5527 5530 5532 5535 5536 5538 5539 5540 5541 5542 5542 5541 5540 5539 5537 5536 5533 5529
5395 5402 5409 5417 5424 5432 5441 5450 5458 5464 5473 5478 5483 5489 5497 5502 5506 5510 5514 5517 5521 5523 5525 5527 5529 5530 5531 5533 5534 5534 5534 5533 5532 5531 5530 5528 5525 5520
5396 5403 5410 5417 5424 5431 5439 5448 5454 5462 5469 5475 5480 5485 5491 5497 5501 5505 5508 5511 5514 5517 5519 5520 5522 5523 5524 5526 5526 5526 5526 5526 5526 5524 5522 5519 5515 5510
5397 5404 5411 5417 5424 5430 5437 5443 5451 5459 5466 5472 5476 5481 5487 5493 5496 5499 5503 5506 5509 5511 5513 5514 5515 5516 5517 5518 5519 5520 5520 5520 5519 5517 5514 5509 5505 5500
5398 5404 5411 5417 5423 5428 5435 5443 5450 5457 5464 5469 5474 5479 5483 5487 5491 5494 5498 5501 5503 5505 5506 5508 5509 5510 5511 5512 5514 5514 5514 5513 5511 5508 5504 5500 5496 5490
5400 5406 5411 5418 5424 5430 5436 5443 5449 5455 5461 5466 5471 5475 5479 5482 5485 5489 5492 5495 5497 5499 5501 5502 5503 5505 5506 5508 5508 5508 5507 5505 5503 5499 5496 5491 5486 5480
5401 5406 5412 5418 5424 5431 5437 5443 5448 5454 5459 5464 5468 5471 5475 5478 5481 5484 5487 5489 5492 5493 5495 5497 5498 5500 5501 5502 5502 5502 5500 5498 5495 5492 5488 5483 5477 5468
5402 5407 5412 5417 5424 5430 5436 5442 5447 5452 5457 5461 5464 5468 5471 5474 5477 5479 5482 5484 5486 5488 5490 5492 5494 5495 5496 5496 5496 5494 5493 5491 5488 5484 5480 5474 5467 5459
5401 5407 5412 5417 5423 5429 5435 5440 5445 5449 5453 5457 5460 5463 5467 5470 5472 5475 5477 5479 5481 5483 5486 5488 5489 5490 5490 5490 5490 5488 5486 5484 5482 5478 5474 5469 5462 5453
5400 5405 5412 5417 5422 5428 5433 5438 5442 5446 5450 5453 5456 5460 5462 5465 5468 5470 5473 5475 5477 5479 5481 5482 5483 5484 5484 5484 5483 5482 5480 5478 5476 5472 5467 5461 5454 5446